This is the latest recevied weather packets stored in our database for station/object IT9FDP-13. If no packets are shown the sender has not sent any weather packets the latest 10 day(s).
| Time | Temp. | Humidity | Pressure | Rain* | Wind** | Luminosity | Snow |
|---|---|---|---|---|---|---|---|
| 1777541420 | 18.33° C | 77% | 1014.7 hPa | 0 mm | - | - | - |
| 1777539949 | 18.33° C | 75% | 1014.6 hPa | 0 mm | - | - | - |
| 1777539317 | 18.89° C | 74% | 1015 hPa | 0 mm | - | - | - |
| 1777537819 | 18.89° C | 73% | 1014.9 hPa | 0 mm | - | - | - |
| 1777534819 | 18.33° C | 74% | 1014.7 hPa | 0 mm | - | - | - |
| 1777533322 | 18.33° C | 74% | 1014.8 hPa | 0 mm | - | - | - |
| 1777532143 | 18.33° C | 72% | 1014.5 hPa | 0 mm | - | - | - |
| 1777529420 | 18.33° C | 71% | 1013.8 hPa | 0 mm | - | - | - |
| 1777527629 | 17.78° C | 73% | 1013.8 hPa | 0 mm | - | - | - |
| 1777525237 | 17.22° C | 72% | 1013.9 hPa | 0 mm | - | - | - |
| 1777524038 | 17.22° C | 69% | 1014 hPa | 0 mm | - | - | - |
| 1777523439 | 17.22° C | 66% | 1014 hPa | 0 mm | - | - | - |
| 1777522239 | 16.67° C | 65% | 1014 hPa | 0 mm | - | - | - |
| 1777520719 | 17.22° C | 66% | 1013.8 hPa | 0 mm | - | - | - |
| 1777520119 | 17.22° C | 66% | 1013.8 hPa | 0 mm | - | - | - |
| 1777518921 | 17.22° C | 67% | 1013.8 hPa | 0 mm | - | - | - |
| 1777518327 | 17.22° C | 68% | 1013.8 hPa | 0 mm | - | - | - |
| 1777517719 | 17.22° C | 69% | 1013.8 hPa | 0 mm | - | - | - |
| 1777516820 | 17.78° C | 70% | 1013.9 hPa | 0 mm | - | - | - |
| 1777515345 | 17.22° C | 71% | 1013.8 hPa | 0 mm | - | - | - |
| 1777515047 | 17.22° C | 71% | 1013.8 hPa | 0 mm | - | - | - |
| 1777514720 | 17.22° C | 71% | 1013.8 hPa | 0 mm | - | - | - |
| 1777514425 | 17.22° C | 72% | 1013.8 hPa | 0 mm | - | - | - |
| 1777513220 | 17.22° C | 72% | 1013.6 hPa | 0 mm | - | - | - |
| 1777512927 | 17.22° C | 72% | 1013.7 hPa | 0 mm | - | - | - |
* Rain latest hour (hover to see other rain measurements)
** Current wind speed in m/s (hover to see current wind gust speed)